Terug naar catalogus

ONEWEB-0406

ActiefCommunicatiePO
NORAD 50486·PAYLOAD·🇬🇧 United Kingdom

Gelanceerd Dec 27, 2021 vanaf Baikonur Cosmodrome

Loading…

Volgende Passages (komende 24 uur)

TLE

VersSource: CelesTrak SupGP

Epoch: Sep 14, 2026, 19:59 UTC

1 50486C 21132T   26257.83316389 -.00002755  00000+0 -69955-2 0  2578
2 50486  87.9162 317.6466 0002142 113.8089 358.8630 13.18688162    18

Volg ONEWEB-0406 in realtime met AllMySat

Download on the App Store